Regional Weather Roundup
Issued by NWS

Home | Current Version | Previous Version | Text Only | Print | Product List | Glossary Off
Versions: 1 2 3 4 5 6 7 8 9 10 11 12 13 14 15 16 17 18 19 20 21 22 23 24 25 26 27 28 29 30 31 32 33 34 35 36 37 38 39 40 41 42 43 44 45 46 47 48 49 50

000
ASUS45 KTFX 300610
RWRMT
MONTANA REGIONAL WEATHER ROUNDUP
NATIONAL WEATHER SERVICE GREAT FALLS MT
1200 AM MDT SAT MAY 30 2015

NOTE: "FAIR" INDICATES FEW OR NO CLOUDS BELOW 12000 FEET WITH NO
SIGNIFICANT WEATHER AND/OR OBSTRUCTIONS TO VISIBILITY.

MTZ001>007-043-300700-
WEST OF THE DIVIDE

CITY           SKY/WX    TMP DP  RH WIND       PRES   REMARKS
KALISPELL      CLEAR     54  51  90 W5        29.99S
MISSOULA       MOCLDY    56  45  66 CALM      30.03R
BUTTE          MOCLDY    54  46  74 CALM      30.14R
MULLAN PASS    PTCLDY    57  42  57 S3        30.10S
DEER LODGE       N/A     52  48  87 CALM      30.13S
EUREKA           N/A     52  50  93 CALM        N/A
HAMILTON         N/A     54  46  76 CALM      30.03S
LIBBY            N/A     57  52  82 SE5       29.98F
PLAINS           N/A     57  51  80 CALM      29.99S
RONAN            N/A     52  46  79 CALM      30.04F
THOMPSON FALLS   N/A     56  53  89 CALM      30.02R
$$

MTZ008-052>055-300700-
SOUTHWEST MONTANA

CITY           SKY/WX    TMP DP  RH WIND       PRES   REMARKS
BOZEMAN        RAIN      53  48  83 SE7       30.15R
DILLON         MOCLDY    57  43  59 S12       30.13S
W YELLOWSTONE  PTCLDY    46  39  76 S8        30.22F
$$

MTZ009-010-012-014-046-048-049-054-300700-
EAST SLOPES AND CENTRAL MONTANA

CITY           SKY/WX    TMP DP  RH WIND       PRES   REMARKS
CUT BANK       CLOUDY    54  45  71 E8        30.09F
GREAT FALLS    CLOUDY    58  47  66 S10       30.04F
MALMSTROM AFB  MOCLDY    55  48  78 SE7       30.05F
HELENA         MOCLDY    54  49  83 SW5       30.08F
CONRAD           N/A     52  50  93 NE3       30.09F
$$

MTZ011-013-016-021-045-047-050-051-300700-
NORTH CENTRAL MONTANA

CITY           SKY/WX    TMP DP  RH WIND       PRES   REMARKS
HAVRE          CLOUDY    51  36  56 E18       30.11F
LEWISTOWN      MOCLDY    49  43  80 S3        30.14S
N BAR RANCH    FAIR      50  43  76 SE10      30.20S
CHINOOK          N/A     48  34  57 E12G17    30.16S
FORT BENTON      N/A     57  45  62 NE9G16    30.07F
$$

MTZ017>020-022>027-061-062-300700-
NORTHEAST MONTANA

CITY           SKY/WX    TMP DP  RH WIND       PRES   REMARKS
GLASGOW        PTCLDY    46  34  62 E10       30.22F
JORDAN           N/A     46  35  65 E7        30.21F
SIDNEY         CLEAR     41  30  65 CALM      30.28S
WOLF POINT     PTCLDY    43  33  68 E6        30.26S
MALTA            N/A     47  32  56 CALM      30.15F
PLENTYWOOD       N/A     43  30  61 NE7       30.29S
POPLAR           N/A     48  32  53 E8        30.27S
$$

MTZ028>42-056>058-300700-
SOUTHCENTRAL AND SOUTHEAST MONTANA

CITY           SKY/WX    TMP DP  RH WIND       PRES   REMARKS
BAKER          CLEAR     40  35  83 SE9       30.28R
BILLINGS       PTCLDY    51  44  77 N6        30.15F
LIVINGSTON     CLOUDY    52  45  77 SE6       30.17S
MILES CITY     CLEAR     48  32  53 E6        30.21F
BIG TIMBER       N/A     52  46  82 N5        30.17F
EKALAKA          N/A     43  34  70 SE7       30.21S
LAUREL           N/A     51  43  74 N5        30.12F
ROUNDUP          N/A     50  37  60 CALM      30.08F
$$

REGIONAL REPORTS...DAKOTAS

CITY           SKY/WX    TMP DP  RH WIND       PRES   REMARKS
WILLISTON      CLEAR     48  30  49 E7        30.29S
MINOT          CLEAR     39  33  79 E7        30.33R
DICKINSON      CLEAR     39  31  72 SE7       30.28S
BEACH          FAIR      37  37 100 SE6       30.29S
CROSBY         FAIR      37  36  93 E8        30.32S WCI  31
WATFORD CITY   FAIR      39  36  87 CALM      30.28S
BISMARCK       CLEAR     42  35  76 E7        30.31R
GRAND FORKS    CLEAR     38  30  73 N14       30.34R WCI  30
FARGO          PTCLDY    43  33  68 N18G25    30.29R
BUFFALO SD       N/A     42  35  76 E12       30.22S
RAPID CITY     CLEAR     38  36  92 CALM      30.30S
$$

REGIONAL REPORTS...WYOMING/IDAHO/WASHINGTON

CITY           SKY/WX    TMP DP  RH WIND       PRES   REMARKS
GILLETTE       CLEAR     42  37  82 S10       30.24F
SHERIDAN       CLEAR     45  41  86 S3        30.18F
BUFFALO WY     CLEAR     47  44  90 SE14      30.22F
CODY           CLEAR     50  45  81 CALM      30.19S
YELLOWSTONE LA   N/A     36  34  92 NW3       30.31F
IDAHO FALLS    PTCLDY    52  46  80 SE3       30.14F
SALMON         CLOUDY    63  45  51 CALM      30.06S
BOISE          MOCLDY    72  40  31 SE9       29.95S
SPOKANE        CLOUDY    61  51  70 NE13      29.94F
$$

REGIONAL REPORTS...ALBERTA

CITY           SKY/WX    TMP DP  RH WIND       PRES   REMARKS
EDMONTON       CLOUDY    52  34  50 E10       30.16F
CALGARY        MOCLDY    48  37  66 SE12      30.13F
LETHBRIDGE     PTCLDY    50  48  93 NE8       30.09S
MEDICINE HAT   CLOUDY    54  36  50 NE6       30.13R
$$

REGIONAL REPORTS...SASKATCHEWAN

CITY           SKY/WX    TMP DP  RH WIND       PRES   REMARKS
SWIFT CURRENT  CLOUDY    46  25  42 E17G23    30.24S
REGINA         PTCLDY    43  23  45 NE13      30.34S
SASKATOON      MOCLDY    46  25  42 SE12G18   30.34S
$$



USA.gov is the U.S. government's official web portal to all federal, state and local government web resources and services.